contact:dominique.lefevre@mio.osupytheas.fr, maurice.libes@osupytheas.fr, didier.mallarino@osupytheas.fr
Project:EMSO http://www.emso-fr.org/EMSO-France
Depth: 2436.0 m
Title:EMSO Ligure Ouest : Data MII capteur AQUADOPP
Date,Latitude,Longitude,X_East,Y_North,Z_Up,Amplitude_X,Amplitude_Y,Amplitude_Z,Batterie,SoundSpeed,Heading,Pitch,Roll,Pressure,TIS,Speed,Direction
, degrees North, degrees East, m.s-1, m.s-1,m.s-1, 1, 1, 1, Volt, m.s-1, degree, degree, degree, dbar, degree_C, m.s-1, degree
2020-05-13T00:04:03,42.805,6.029,0.001,0.024,-0.026,105.0,111.0,101.0,13.4,1505.3,327.5,-0.7,1.8,2470.465,13.32,0.024,2.4
2020-05-13T00:07:03,42.805,6.029,-0.004,0.039,-0.012,105.0,111.0,101.0,13.4,1505.3,326.3,-0.7,1.8,2470.461,13.32,0.039,354.1
2020-05-13T00:10:03,42.805,6.029,0.023,0.019,-0.01,105.0,111.0,101.0,13.3,1505.3,324.0,-0.7,1.8,2470.415,13.33,0.029,50.4
2020-05-13T00:13:03,42.805,6.029,0.021,0.028,-0.005,104.0,110.0,101.0,13.4,1505.3,325.0,-0.8,1.8,2470.462,13.33,0.035,36.9
2020-05-13T00:16:03,42.805,6.029,0.017,0.021,-0.029,106.0,109.0,101.0,13.4,1505.3,327.7,-0.7,1.8,2470.456,13.33,0.027,39.0
2020-05-13T00:19:03,42.805,6.029,0.003,0.047,0.001,104.0,109.0,102.0,13.3,1505.3,327.0,-0.7,1.8,2470.488,13.33,0.047,3.6
2020-05-13T00:22:03,42.805,6.029,0.004,0.037,-0.029,103.0,112.0,102.0,13.4,1505.3,328.4,-0.7,1.9,2470.393,13.33,0.037,6.2
2020-05-13T00:25:03,42.805,6.029,0.001,0.029,-0.012,104.0,111.0,101.0,13.4,1505.3,325.9,-0.7,1.9,2470.444,13.33,0.029,2.0
2020-05-13T00:28:03,42.805,6.029,-0.017,0.026,-0.033,104.0,111.0,102.0,13.4,1505.3,326.7,-0.7,1.8,2470.433,13.33,0.031,326.8
2020-05-13T00:31:03,42.805,6.029,-0.003,0.03,-0.006,104.0,108.0,101.0,13.3,1505.4,324.4,-0.7,1.8,2470.422,13.34,0.03,354.3
2020-05-13T00:34:03,42.805,6.029,-0.003,0.034,-0.053,105.0,108.0,102.0,13.3,1505.3,326.8,-0.7,1.8,2470.399,13.33,0.034,355.0
2020-05-13T00:37:03,42.805,6.029,0.003,0.038,-0.031,103.0,111.0,101.0,13.4,1505.3,324.3,-0.7,1.8,2470.454,13.33,0.038,4.5
2020-05-13T00:40:03,42.805,6.029,0.012,0.039,0.003,106.0,110.0,100.0,13.4,1505.3,324.8,-0.7,1.8,2470.43,13.33,0.04,17.1
2020-05-13T00:43:03,42.805,6.029,0.0,0.021,-0.001,104.0,111.0,102.0,13.4,1505.3,324.8,-0.7,1.8,2470.433,13.33,0.021,0.0
2020-05-13T00:46:03,42.805,6.029,0.0,0.01,-0.026,105.0,111.0,101.0,13.4,1505.3,327.3,-0.7,1.8,2470.415,13.33,0.01,0.0
2020-05-13T00:49:03,42.805,6.029,0.011,0.037,-0.033,104.0,111.0,101.0,13.3,1505.3,324.3,-0.7,1.8,2470.419,13.33,0.038,16.6
2020-05-13T00:52:03,42.805,6.029,-0.01,0.016,-0.028,105.0,111.0,101.0,13.4,1505.3,324.0,-0.7,1.8,2470.506,13.33,0.018,328.0
2020-05-13T00:55:03,42.805,6.029,-0.001,0.024,-0.05,103.0,111.0,103.0,13.4,1505.3,324.8,-0.7,1.9,2470.421,13.33,0.024,357.6
2020-05-13T00:58:03,42.805,6.029,-0.009,0.021,-0.032,106.0,109.0,102.0,13.4,1505.3,323.3,-0.8,1.8,2470.421,13.33,0.022,336.8
2020-05-13T01:04:03,42.805,6.029,0.0,0.044,-0.057,106.0,113.0,104.0,13.4,1505.3,324.2,-0.7,1.8,2470.467,13.31,0.044,0.0
2020-05-13T01:07:03,42.805,6.029,0.0,0.024,-0.029,105.0,110.0,103.0,13.4,1505.3,323.2,-0.7,1.8,2470.464,13.32,0.024,0.0
2020-05-13T01:10:03,42.805,6.029,-0.003,0.029,-0.045,104.0,111.0,101.0,13.3,1505.3,326.0,-0.7,1.8,2470.426,13.33,0.029,354.1
2020-05-13T01:13:03,42.805,6.029,-0.007,0.032,-0.003,104.0,111.0,102.0,13.4,1505.3,324.6,-0.7,1.8,2470.47,13.33,0.032,347.7
2020-05-13T01:16:03,42.805,6.029,0.004,0.053,0.0,104.0,111.0,102.0,13.4,1505.3,326.3,-0.7,1.8,2470.462,13.33,0.053,4.3
2020-05-13T01:19:03,42.805,6.029,-0.015,0.033,-0.006,104.0,112.0,101.0,13.3,1505.3,323.9,-0.7,1.8,2470.45,13.33,0.036,335.6
2020-05-13T01:22:03,42.805,6.029,0.01,0.029,-0.023,103.0,111.0,102.0,13.4,1505.3,326.1,-0.7,1.8,2470.402,13.33,0.03,19.0
2020-05-13T01:25:03,42.805,6.029,0.002,0.02,-0.041,104.0,111.0,100.0,13.4,1505.3,325.4,-0.7,1.9,2470.427,13.33,0.02,5.7
2020-05-13T01:28:03,42.805,6.029,-0.003,0.041,-0.031,105.0,112.0,101.0,13.4,1505.3,327.0,-0.7,1.8,2470.43,13.33,0.041,355.8
2020-05-13T01:31:03,42.805,6.029,0.004,0.043,-0.005,105.0,110.0,101.0,13.4,1505.3,325.3,-0.7,1.9,2470.405,13.33,0.043,5.3
2020-05-13T01:34:03,42.805,6.029,-0.007,0.039,-0.045,105.0,111.0,102.0,13.4,1505.3,327.1,-0.7,1.8,2470.455,13.33,0.039,349.8
2020-05-13T01:37:03,42.805,6.029,-0.008,0.046,-0.015,105.0,110.0,102.0,13.3,1505.3,326.5,-0.7,1.8,2470.409,13.33,0.046,350.1
2020-05-13T01:40:03,42.805,6.029,-0.015,0.03,-0.035,104.0,111.0,101.0,13.4,1505.3,326.8,-0.6,1.9,2470.428,13.33,0.033,333.4
2020-05-13T01:43:03,42.805,6.029,0.006,0.047,0.006,104.0,110.0,101.0,13.4,1505.3,323.4,-0.7,1.8,2470.423,13.33,0.047,7.3
2020-05-13T01:46:03,42.805,6.029,0.009,0.038,-0.003,104.0,111.0,101.0,13.3,1505.3,326.8,-0.7,1.8,2470.46,13.33,0.039,13.3
2020-05-13T01:49:03,42.805,6.029,0.0,0.044,-0.019,106.0,109.0,101.0,13.3,1505.3,324.7,-0.7,1.8,2470.395,13.33,0.044,0.0
2020-05-13T01:52:03,42.805,6.029,0.018,0.039,-0.011,105.0,110.0,101.0,13.4,1505.3,326.7,-0.7,1.8,2470.419,13.33,0.042,24.8
2020-05-13T01:55:03,42.805,6.029,-0.015,0.03,-0.046,104.0,111.0,102.0,13.4,1505.3,327.7,-0.7,1.8,2470.429,13.33,0.033,333.4
2020-05-13T01:58:03,42.805,6.029,-0.008,0.026,-0.028,106.0,111.0,102.0,13.3,1505.3,325.6,-0.7,1.8,2470.422,13.33,0.027,342.9
2020-05-13T02:04:03,42.805,6.029,-0.004,0.032,0.0,104.0,110.0,101.0,13.4,1505.3,323.0,-0.7,1.8,2470.421,13.31,0.032,352.9
2020-05-13T02:07:03,42.805,6.029,0.005,0.052,-0.005,105.0,108.0,101.0,13.4,1505.3,326.1,-0.7,1.9,2470.44,13.32,0.052,5.5
2020-05-13T02:10:03,42.805,6.029,-0.016,0.028,-0.018,104.0,108.0,102.0,13.3,1505.3,324.2,-0.7,1.8,2470.372,13.33,0.032,330.3
2020-05-13T02:13:03,42.805,6.029,0.017,0.016,-0.008,106.0,109.0,102.0,13.4,1505.3,328.1,-0.7,1.8,2470.436,13.33,0.023,46.7
2020-05-13T02:16:03,42.805,6.029,-0.017,0.039,-0.013,104.0,111.0,102.0,13.3,1505.3,327.2,-0.7,1.8,2470.451,13.33,0.042,336.5
2020-05-13T02:19:03,42.805,6.029,0.0,0.037,-0.004,104.0,109.0,102.0,13.4,1505.3,327.7,-0.7,1.8,2470.418,13.33,0.037,0.0
2020-05-13T02:22:03,42.805,6.029,0.001,0.049,-0.009,106.0,108.0,101.0,13.4,1505.3,325.1,-0.7,1.8,2470.395,13.33,0.049,1.2
2020-05-13T02:25:03,42.805,6.029,0.002,0.052,-0.04,106.0,109.0,101.0,13.4,1505.3,327.1,-0.7,1.8,2470.422,13.33,0.052,2.2
2020-05-13T02:28:03,42.805,6.029,0.017,0.021,-0.013,103.0,110.0,102.0,13.4,1505.3,324.8,-0.7,1.8,2470.442,13.33,0.027,39.0
2020-05-13T02:31:03,42.805,6.029,-0.014,0.051,0.0,106.0,111.0,102.0,13.4,1505.3,326.7,-0.7,1.8,2470.435,13.33,0.052,344.7
2020-05-13T02:34:03,42.805,6.029,-0.009,0.038,-0.022,106.0,111.0,102.0,13.4,1505.3,323.5,-0.7,1.9,2470.432,13.33,0.039,346.7
2020-05-13T02:37:03,42.805,6.029,0.013,0.023,-0.023,107.0,112.0,102.0,13.4,1505.3,324.4,-0.7,1.8,2470.425,13.33,0.026,29.5
2020-05-13T02:40:03,42.805,6.029,-0.007,0.047,-0.023,105.0,111.0,103.0,13.4,1505.3,324.4,-0.7,1.8,2470.395,13.33,0.047,351.5
2020-05-13T02:43:03,42.805,6.029,0.024,0.047,0.001,105.0,111.0,103.0,13.3,1505.3,325.2,-0.7,1.8,2470.366,13.33,0.052,27.0
2020-05-13T02:46:03,42.805,6.029,-0.008,0.01,-0.031,105.0,111.0,102.0,13.3,1505.3,326.0,-0.7,1.8,2470.412,13.33,0.012,321.3
2020-05-13T02:49:03,42.805,6.029,-0.024,0.019,-0.041,107.0,112.0,101.0,13.3,1505.3,324.3,-0.7,1.8,2470.378,13.33,0.03,308.4
2020-05-13T02:52:03,42.805,6.029,-0.029,0.03,-0.033,103.0,112.0,102.0,13.4,1505.3,326.0,-0.7,1.8,2470.447,13.33,0.041,316.0
2020-05-13T02:55:03,42.805,6.029,-0.01,0.029,-0.008,105.0,112.0,102.0,13.3,1505.3,323.7,-0.7,1.8,2470.435,13.33,0.03,341.0
2020-05-13T02:58:03,42.805,6.029,-0.006,0.052,-0.024,106.0,111.0,103.0,13.4,1505.3,326.4,-0.7,1.8,2470.355,13.33,0.052,353.4
2020-05-13T03:04:03,42.805,6.029,0.007,0.019,-0.023,105.0,111.0,101.0,13.4,1505.3,327.1,-0.7,1.8,2470.426,13.31,0.02,20.2
2020-05-13T03:07:03,42.805,6.029,0.002,0.03,-0.029,107.0,111.0,103.0,13.3,1505.3,324.8,-0.7,1.8,2470.427,13.32,0.03,3.8
2020-05-13T03:10:03,42.805,6.029,-0.007,0.03,-0.039,104.0,111.0,102.0,13.3,1505.3,327.3,-0.7,1.8,2470.417,13.32,0.03,346.9
2020-05-13T03:13:03,42.805,6.029,-0.003,0.039,-0.009,105.0,110.0,103.0,13.4,1505.3,324.2,-0.7,1.8,2470.394,13.33,0.039,355.6
2020-05-13T03:16:03,42.805,6.029,-0.006,0.029,-0.009,103.0,112.0,103.0,13.3,1505.3,323.3,-0.7,1.9,2470.396,13.33,0.029,348.3
2020-05-13T03:19:03,42.805,6.029,-0.007,0.041,-0.031,106.0,109.0,103.0,13.4,1505.3,328.3,-0.7,1.9,2470.352,13.33,0.041,350.3
2020-05-13T03:22:03,42.805,6.029,-0.016,0.036,-0.031,105.0,110.0,102.0,13.4,1505.3,326.4,-0.7,1.8,2470.376,13.33,0.039,336.0
2020-05-13T03:25:03,42.805,6.029,-0.004,0.043,0.003,106.0,109.0,103.0,13.3,1505.3,326.7,-0.7,1.8,2470.354,13.33,0.043,354.7
2020-05-13T03:28:03,42.805,6.029,-0.01,0.037,-0.052,106.0,112.0,102.0,13.4,1505.3,325.2,-0.7,1.8,2470.36,13.33,0.038,344.9
2020-05-13T03:31:03,42.805,6.029,0.0,0.037,0.008,106.0,112.0,102.0,13.3,1505.3,323.3,-0.7,1.9,2470.424,13.33,0.037,0.0
2020-05-13T03:34:03,42.805,6.029,0.0,0.027,-0.016,106.0,112.0,106.0,13.3,1505.3,325.0,-0.7,1.8,2470.413,13.33,0.026,0.0
2020-05-13T03:37:03,42.805,6.029,0.011,0.028,-0.044,107.0,110.0,102.0,13.4,1505.4,326.0,-0.7,1.8,2470.381,13.34,0.03,21.4
2020-05-13T03:40:03,42.805,6.029,-0.007,0.019,-0.011,106.0,110.0,101.0,13.3,1505.4,323.3,-0.7,1.8,2470.375,13.34,0.02,339.8
2020-05-13T03:43:03,42.805,6.029,0.006,0.037,-0.009,105.0,110.0,102.0,13.4,1505.3,327.1,-0.7,1.8,2470.422,13.33,0.037,9.2
2020-05-13T03:46:03,42.805,6.029,0.0,0.045,-0.043,105.0,110.0,102.0,13.4,1505.3,325.9,-0.7,1.8,2470.356,13.33,0.045,0.0
2020-05-13T03:49:03,42.805,6.029,0.006,0.033,-0.02,106.0,110.0,102.0,13.4,1505.3,323.3,-0.7,1.8,2470.344,13.33,0.033,10.3
2020-05-13T03:52:03,42.805,6.029,-0.009,0.042,-0.051,106.0,112.0,102.0,13.4,1505.3,326.8,-0.7,1.8,2470.365,13.33,0.042,347.9
2020-05-13T03:55:03,42.805,6.029,-0.005,0.05,0.003,105.0,112.0,102.0,13.3,1505.3,326.9,-0.7,1.9,2470.389,13.33,0.05,354.3
2020-05-13T03:58:03,42.805,6.029,0.019,0.033,-0.009,105.0,110.0,102.0,13.4,1505.3,327.8,-0.7,1.8,2470.369,13.33,0.038,29.9
2020-05-13T04:04:03,42.805,6.029,0.006,0.035,0.016,105.0,111.0,102.0,13.4,1505.3,323.3,-0.8,1.8,2470.421,13.31,0.035,9.7
2020-05-13T04:07:03,42.805,6.029,-0.009,0.035,-0.038,105.0,111.0,102.0,13.4,1505.3,325.0,-0.7,1.8,2470.428,13.32,0.036,345.6
2020-05-13T04:10:03,42.805,6.029,0.004,0.032,-0.021,105.0,111.0,102.0,13.3,1505.3,323.6,-0.7,1.8,2470.382,13.33,0.032,7.1
2020-05-13T04:13:03,42.805,6.029,0.008,0.017,-0.011,105.0,111.0,102.0,13.4,1505.3,327.7,-0.7,1.8,2470.389,13.33,0.018,25.2
2020-05-13T04:16:03,42.805,6.029,-0.003,0.029,-0.006,105.0,110.0,102.0,13.4,1505.3,323.7,-0.7,1.8,2470.377,13.33,0.029,354.1
2020-05-13T04:19:03,42.805,6.029,0.015,0.019,-0.027,105.0,111.0,102.0,13.3,1505.3,325.2,-0.7,1.8,2470.344,13.33,0.024,38.3
2020-05-13T04:22:03,42.805,6.029,0.0,0.032,-0.024,104.0,110.0,102.0,13.4,1505.3,323.7,-0.7,1.8,2470.338,13.33,0.032,0.0
2020-05-13T04:25:03,42.805,6.029,0.02,0.018,-0.049,105.0,112.0,102.0,13.3,1505.3,326.9,-0.7,1.8,2470.402,13.33,0.026,48.0
2020-05-13T04:28:03,42.805,6.029,0.001,0.02,-0.025,105.0,111.0,103.0,13.4,1505.3,326.3,-0.7,1.8,2470.342,13.33,0.02,2.9
2020-05-13T04:31:03,42.805,6.029,0.007,0.04,0.002,105.0,108.0,102.0,13.4,1505.3,324.5,-0.7,1.9,2470.346,13.33,0.04,9.9
2020-05-13T04:34:03,42.805,6.029,-0.006,0.032,-0.022,105.0,110.0,101.0,13.4,1505.3,323.0,-0.7,1.8,2470.347,13.33,0.032,349.4
2020-05-13T04:37:03,42.805,6.029,0.009,0.014,-0.031,104.0,111.0,102.0,13.4,1505.3,323.8,-0.7,1.8,2470.33,13.33,0.016,32.7
2020-05-13T04:40:03,42.805,6.029,-0.005,0.025,-0.03,105.0,110.0,101.0,13.4,1505.3,327.7,-0.7,1.8,2470.354,13.33,0.025,348.7
2020-05-13T04:43:03,42.805,6.029,-0.016,0.035,-0.039,105.0,111.0,102.0,13.4,1505.3,324.8,-0.7,1.8,2470.341,13.33,0.038,335.4
2020-05-13T04:46:03,42.805,6.029,0.015,0.026,-0.039,105.0,111.0,102.0,13.4,1505.3,324.4,-0.7,1.8,2470.359,13.33,0.03,30.0
2020-05-13T04:49:03,42.805,6.029,-0.01,0.02,-0.029,106.0,110.0,102.0,13.4,1505.3,322.9,-0.7,1.8,2470.336,13.33,0.022,333.4
2020-05-13T04:52:03,42.805,6.029,0.0,0.028,-0.026,105.0,112.0,102.0,13.3,1505.3,325.1,-0.7,1.8,2470.309,13.33,0.028,0.0
2020-05-13T04:55:03,42.805,6.029,0.005,0.017,-0.007,106.0,110.0,102.0,13.3,1505.4,327.2,-0.7,1.8,2470.333,13.34,0.017,16.4
2020-05-13T04:58:03,42.805,6.029,-0.01,0.032,-0.015,105.0,108.0,101.0,13.3,1505.3,325.8,-0.7,1.8,2470.334,13.33,0.033,342.6
2020-05-13T05:04:03,42.805,6.029,0.011,0.037,-0.02,106.0,110.0,102.0,13.4,1505.3,325.3,-0.7,1.9,2470.362,13.32,0.038,16.6
2020-05-13T05:07:03,42.805,6.029,-0.031,0.027,-0.034,104.0,111.0,101.0,13.3,1505.3,327.4,-0.7,1.8,2470.377,13.32,0.041,311.1
2020-05-13T05:10:03,42.805,6.029,0.0,0.042,-0.031,106.0,111.0,102.0,13.3,1505.3,327.2,-0.7,1.9,2470.345,13.33,0.042,0.0
2020-05-13T05:13:03,42.805,6.029,-0.014,0.013,-0.039,104.0,111.0,102.0,13.4,1505.3,327.6,-0.7,1.8,2470.354,13.33,0.019,312.9
2020-05-13T05:16:03,42.805,6.029,0.004,0.02,-0.012,105.0,111.0,101.0,13.3,1505.3,325.3,-0.7,1.8,2470.334,13.33,0.02,11.3
2020-05-13T05:19:03,42.805,6.029,-0.008,0.025,0.003,105.0,110.0,101.0,13.4,1505.3,328.4,-0.7,1.8,2470.342,13.33,0.026,342.3
2020-05-13T05:22:03,42.805,6.029,0.025,0.035,-0.005,105.0,110.0,103.0,13.4,1505.3,325.6,-0.7,1.8,2470.328,13.33,0.043,35.5
2020-05-13T05:25:03,42.805,6.029,0.006,0.03,-0.01,104.0,111.0,102.0,13.3,1505.3,323.8,-0.7,1.8,2470.348,13.33,0.03,11.3
2020-05-13T05:28:03,42.805,6.029,-0.004,0.04,-0.013,104.0,109.0,101.0,13.4,1505.3,326.1,-0.7,1.8,2470.33,13.33,0.04,354.3
2020-05-13T05:31:03,42.805,6.029,0.009,0.027,-0.006,106.0,112.0,101.0,13.4,1505.3,325.1,-0.7,1.8,2470.367,13.33,0.028,18.4
2020-05-13T05:34:03,42.805,6.029,-0.019,0.037,-0.018,105.0,111.0,101.0,13.3,1505.3,326.3,-0.7,1.8,2470.315,13.33,0.041,332.8
2020-05-13T05:37:03,42.805,6.029,0.021,0.019,-0.023,105.0,109.0,102.0,13.4,1505.3,325.2,-0.7,1.9,2470.296,13.33,0.028,47.9
2020-05-13T05:40:03,42.805,6.029,0.02,0.037,-0.015,106.0,108.0,102.0,13.3,1505.3,325.3,-0.7,1.8,2470.295,13.33,0.042,28.4
2020-05-13T05:43:03,42.805,6.029,0.0,0.043,-0.025,104.0,109.0,102.0,13.3,1505.3,324.2,-0.7,1.8,2470.298,13.33,0.043,0.0
2020-05-13T05:46:03,42.805,6.029,0.002,0.021,-0.005,104.0,109.0,102.0,13.4,1505.3,325.2,-0.7,1.8,2470.314,13.33,0.021,5.4
2020-05-13T05:49:03,42.805,6.029,-0.011,0.033,-0.023,106.0,109.0,102.0,13.4,1505.3,324.8,-0.7,1.8,2470.319,13.33,0.034,341.6
2020-05-13T05:52:03,42.805,6.029,-0.009,0.029,0.006,104.0,111.0,103.0,13.4,1505.3,325.8,-0.7,1.8,2470.326,13.33,0.03,342.8
2020-05-13T05:55:03,42.805,6.029,0.001,0.032,-0.02,105.0,109.0,102.0,13.4,1505.3,326.4,-0.7,1.9,2470.317,13.33,0.032,1.8
2020-05-13T05:58:03,42.805,6.029,-0.009,0.019,0.015,106.0,110.0,102.0,13.3,1505.3,327.2,-0.7,1.8,2470.329,13.33,0.021,334.7
2020-05-13T06:04:03,42.805,6.029,0.016,0.028,-0.011,105.0,110.0,102.0,13.4,1505.3,324.1,-0.8,1.8,2470.372,13.31,0.032,29.7
2020-05-13T06:07:03,42.805,6.029,0.014,0.03,-0.011,104.0,111.0,104.0,13.4,1505.3,327.2,-0.7,1.8,2470.328,13.32,0.033,25.0
2020-05-13T06:10:03,42.805,6.029,0.002,0.035,-0.029,105.0,110.0,102.0,13.4,1505.3,325.3,-0.7,1.9,2470.357,13.33,0.035,3.3
2020-05-13T06:13:03,42.805,6.029,0.013,0.017,-0.019,105.0,110.0,101.0,13.4,1505.3,328.2,-0.7,1.8,2470.345,13.33,0.021,37.4
2020-05-13T06:16:03,42.805,6.029,0.007,0.007,-0.021,104.0,112.0,102.0,13.4,1505.3,326.6,-0.7,1.8,2470.316,13.33,0.009,45.0
2020-05-13T06:19:03,42.805,6.029,0.008,0.023,-0.012,105.0,110.0,102.0,13.4,1505.3,327.9,-0.7,1.8,2470.334,13.33,0.024,19.2
2020-05-13T06:22:03,42.805,6.029,0.003,0.034,-0.027,104.0,111.0,102.0,13.4,1505.3,323.5,-0.7,1.8,2470.31,13.33,0.034,5.0
2020-05-13T06:25:03,42.805,6.029,-0.004,0.029,-0.011,104.0,111.0,103.0,13.4,1505.3,325.3,-0.7,1.8,2470.332,13.33,0.029,352.2
2020-05-13T06:28:03,42.805,6.029,-0.005,0.045,-0.012,105.0,112.0,101.0,13.3,1505.3,324.5,-0.7,1.8,2470.275,13.33,0.045,353.7
2020-05-13T06:31:03,42.805,6.029,0.001,0.024,-0.026,105.0,111.0,102.0,13.4,1505.3,326.5,-0.7,1.8,2470.324,13.33,0.024,2.4
2020-05-13T06:34:03,42.805,6.029,0.002,0.028,-0.021,106.0,111.0,102.0,13.4,1505.3,326.7,-0.7,1.8,2470.289,13.33,0.028,4.1
2020-05-13T06:37:03,42.805,6.029,-0.006,0.038,-0.021,106.0,110.0,102.0,13.4,1505.3,322.9,-0.7,1.8,2470.307,13.33,0.038,351.0
2020-05-13T06:40:03,42.805,6.029,0.0,0.036,-0.01,105.0,111.0,102.0,13.4,1505.3,324.4,-0.7,1.8,2470.31,13.33,0.036,0.0
2020-05-13T06:43:03,42.805,6.029,0.008,0.0,0.002,105.0,110.0,101.0,13.4,1505.3,326.1,-0.7,1.8,2470.333,13.33,0.008,90.0
2020-05-13T06:46:03,42.805,6.029,0.009,0.048,-0.015,105.0,112.0,102.0,13.4,1505.3,325.8,-0.7,1.8,2470.301,13.33,0.048,10.6
2020-05-13T06:49:03,42.805,6.029,-0.021,0.016,-0.015,105.0,111.0,101.0,13.4,1505.3,325.7,-0.7,1.8,2470.324,13.33,0.026,307.3
2020-05-13T06:52:03,42.805,6.029,-0.003,0.033,-0.043,104.0,111.0,102.0,13.4,1505.3,325.7,-0.7,1.9,2470.256,13.33,0.033,354.8
2020-05-13T06:55:03,42.805,6.029,-0.021,0.051,-0.005,105.0,110.0,101.0,13.4,1505.3,323.5,-0.7,1.8,2470.31,13.33,0.055,337.6
2020-05-13T06:58:03,42.805,6.029,0.017,0.045,0.001,105.0,111.0,102.0,13.4,1505.3,323.9,-0.7,1.8,2470.289,13.33,0.048,20.7
2020-05-13T07:04:03,42.805,6.029,0.005,0.026,-0.02,105.0,111.0,102.0,13.4,1505.3,324.4,-0.8,1.8,2470.361,13.31,0.026,10.9
2020-05-13T07:07:03,42.805,6.029,0.001,0.038,-0.017,105.0,111.0,101.0,13.3,1505.3,326.8,-0.7,1.8,2470.342,13.32,0.038,1.5
2020-05-13T07:10:03,42.805,6.029,0.004,0.029,-0.027,106.0,111.0,102.0,13.4,1505.3,324.6,-0.7,1.8,2470.344,13.33,0.029,7.8
2020-05-13T07:13:03,42.805,6.029,0.004,0.023,-0.003,104.0,109.0,102.0,13.4,1505.3,326.9,-0.7,1.8,2470.31,13.33,0.023,9.9
2020-05-13T07:16:03,42.805,6.029,-0.006,0.048,-0.029,105.0,110.0,102.0,13.4,1505.3,324.7,-0.7,1.8,2470.363,13.33,0.048,352.9
2020-05-13T07:19:03,42.805,6.029,0.003,0.039,-0.017,105.0,111.0,101.0,13.3,1505.3,323.9,-0.7,1.8,2470.316,13.33,0.039,4.4
2020-05-13T07:22:03,42.805,6.029,-0.007,0.047,-0.059,105.0,110.0,101.0,13.4,1505.3,323.7,-0.7,1.8,2470.339,13.33,0.047,351.5
2020-05-13T07:25:03,42.805,6.029,-0.011,0.025,-0.018,104.0,109.0,102.0,13.4,1505.3,324.0,-0.7,1.8,2470.289,13.33,0.027,336.3
2020-05-13T07:28:03,42.805,6.029,0.027,0.062,-0.028,105.0,111.0,102.0,13.3,1505.3,327.8,-0.7,1.8,2470.346,13.33,0.067,23.5
2020-05-13T07:31:03,42.805,6.029,0.019,0.033,-0.005,106.0,110.0,102.0,13.4,1505.3,324.6,-0.7,1.8,2470.304,13.33,0.038,29.9
2020-05-13T07:34:03,42.805,6.029,0.001,0.031,0.029,105.0,111.0,101.0,13.4,1505.3,326.7,-0.7,1.8,2470.338,13.33,0.031,1.8
2020-05-13T07:37:03,42.805,6.029,0.0,0.043,-0.018,105.0,110.0,102.0,13.3,1505.3,323.3,-0.7,1.8,2470.288,13.33,0.043,0.0
2020-05-13T07:40:03,42.805,6.029,-0.024,0.022,-0.006,105.0,110.0,103.0,13.4,1505.3,323.7,-0.7,1.8,2470.344,13.33,0.032,312.5
2020-05-13T07:43:03,42.805,6.029,0.023,0.02,-0.017,105.0,111.0,102.0,13.4,1505.3,326.5,-0.7,1.8,2470.296,13.33,0.03,49.0
2020-05-13T07:46:03,42.805,6.029,-0.002,0.041,-0.014,106.0,110.0,102.0,13.4,1505.3,328.1,-0.7,1.8,2470.299,13.33,0.041,357.2
2020-05-13T07:49:03,42.805,6.029,0.011,0.025,0.0,104.0,109.0,102.0,13.4,1505.3,324.6,-0.7,1.8,2470.315,13.33,0.027,23.7
2020-05-13T07:52:03,42.805,6.029,0.016,0.029,-0.004,105.0,110.0,102.0,13.3,1505.3,325.9,-0.7,1.8,2470.321,13.33,0.033,28.9
2020-05-13T07:55:03,42.805,6.029,0.038,0.036,0.005,105.0,111.0,102.0,13.3,1505.3,325.9,-0.7,1.8,2470.298,13.33,0.052,46.5
2020-05-13T07:58:03,42.805,6.029,0.009,0.033,-0.024,105.0,110.0,103.0,13.3,1505.3,325.6,-0.7,1.9,2470.295,13.33,0.034,15.3
2020-05-13T08:04:03,42.805,6.029,0.007,0.022,0.006,106.0,110.0,102.0,13.4,1505.3,328.1,-0.8,1.9,2470.38,13.31,0.023,17.6
2020-05-13T08:07:03,42.805,6.029,0.014,0.009,-0.025,105.0,111.0,103.0,13.4,1505.3,323.8,-0.7,1.8,2470.353,13.32,0.016,57.3
2020-05-13T08:10:03,42.805,6.029,0.004,0.03,-0.039,106.0,110.0,102.0,13.4,1505.3,326.0,-0.7,1.8,2470.348,13.33,0.03,7.6
2020-05-13T08:13:03,42.805,6.029,-0.004,0.042,-0.019,105.0,110.0,103.0,13.4,1505.3,326.5,-0.7,1.9,2470.314,13.33,0.042,354.6
2020-05-13T08:16:03,42.805,6.029,0.01,0.032,-0.038,105.0,110.0,102.0,13.4,1505.3,322.8,-0.7,1.8,2470.33,13.33,0.033,17.4
2020-05-13T08:19:03,42.805,6.029,0.009,0.044,-0.01,104.0,109.0,102.0,13.4,1505.3,327.4,-0.7,1.8,2470.323,13.33,0.044,11.6
2020-05-13T08:22:03,42.805,6.029,-0.003,0.035,-0.003,105.0,110.0,103.0,13.3,1505.3,325.2,-0.7,1.8,2470.353,13.33,0.035,355.1
2020-05-13T08:25:03,42.805,6.029,0.003,0.027,-0.009,105.0,109.0,102.0,13.4,1505.3,324.7,-0.7,1.9,2470.32,13.33,0.027,6.3
2020-05-13T08:28:03,42.805,6.029,-0.002,0.02,-0.011,106.0,109.0,102.0,13.4,1505.3,327.7,-0.7,1.9,2470.324,13.33,0.02,354.3
2020-05-13T08:31:03,42.805,6.029,-0.007,0.027,0.002,106.0,110.0,103.0,13.4,1505.3,324.8,-0.7,1.8,2470.311,13.33,0.027,345.5
2020-05-13T08:34:03,42.805,6.029,0.005,0.035,-0.013,106.0,110.0,102.0,13.3,1505.3,323.5,-0.7,1.8,2470.307,13.33,0.035,8.1
2020-05-13T08:37:03,42.805,6.029,0.01,0.04,-0.029,104.0,109.0,103.0,13.3,1505.3,327.4,-0.7,1.9,2470.312,13.33,0.041,14.0
2020-05-13T08:40:03,42.805,6.029,-0.004,0.016,0.006,106.0,110.0,103.0,13.4,1505.3,328.2,-0.7,1.8,2470.308,13.33,0.016,346.0
2020-05-13T08:43:03,42.805,6.029,0.026,0.032,-0.012,105.0,111.0,103.0,13.3,1505.3,326.3,-0.7,1.9,2470.346,13.33,0.041,39.1
2020-05-13T08:46:03,42.805,6.029,-0.011,0.035,-0.008,106.0,111.0,102.0,13.4,1505.3,327.2,-0.7,1.8,2470.314,13.33,0.036,342.6
2020-05-13T08:49:03,42.805,6.029,0.016,0.024,-0.004,104.0,110.0,101.0,13.4,1505.3,324.0,-0.7,1.8,2470.343,13.33,0.028,33.7
2020-05-13T08:52:03,42.805,6.029,0.013,0.033,-0.015,105.0,111.0,102.0,13.4,1505.3,327.9,-0.7,1.8,2470.322,13.33,0.035,21.5
2020-05-13T08:55:03,42.805,6.029,0.007,0.032,-0.003,106.0,109.0,103.0,13.4,1505.3,326.0,-0.7,1.8,2470.335,13.33,0.032,12.3
2020-05-13T08:58:03,42.805,6.029,0.012,0.047,-0.006,105.0,112.0,101.0,13.4,1505.3,328.2,-0.7,1.8,2470.356,13.33,0.048,14.3
2020-05-13T09:04:03,42.805,6.029,0.009,0.007,0.006,105.0,111.0,103.0,13.3,1505.3,325.6,-0.7,1.8,2470.416,13.31,0.011,52.1
2020-05-13T09:07:03,42.805,6.029,0.009,0.014,0.007,105.0,109.0,103.0,13.3,1505.3,322.8,-0.7,1.8,2470.399,13.32,0.016,32.7
2020-05-13T09:10:03,42.805,6.029,-0.005,0.006,-0.037,105.0,111.0,103.0,13.4,1505.3,326.3,-0.7,1.8,2470.355,13.33,0.007,320.2
2020-05-13T09:13:03,42.805,6.029,-0.008,0.017,-0.013,105.0,111.0,103.0,13.3,1505.3,327.7,-0.7,1.8,2470.327,13.33,0.018,334.8
2020-05-13T09:16:03,42.805,6.029,0.022,0.043,-0.022,103.0,111.0,103.0,13.4,1505.3,327.1,-0.7,1.9,2470.319,13.33,0.048,27.1
2020-05-13T09:19:03,42.805,6.029,-0.005,0.071,-0.023,105.0,112.0,103.0,13.4,1505.3,327.1,-0.7,1.8,2470.359,13.33,0.071,356.0
2020-05-13T09:22:03,42.805,6.029,-0.01,0.054,-0.02,106.0,112.0,103.0,13.4,1505.3,323.2,-0.7,1.8,2470.356,13.33,0.054,349.5
2020-05-13T09:25:03,42.805,6.029,-0.012,0.038,-0.018,107.0,112.0,102.0,13.4,1505.3,326.1,-0.7,1.8,2470.34,13.33,0.039,342.5
2020-05-13T09:28:03,42.805,6.029,0.005,0.037,-0.032,105.0,113.0,103.0,13.3,1505.3,325.7,-0.7,1.8,2470.364,13.33,0.037,7.7
2020-05-13T09:31:03,42.805,6.029,-0.022,0.039,-0.042,107.0,111.0,103.0,13.4,1505.3,325.6,-0.7,1.9,2470.382,13.33,0.044,330.6
2020-05-13T09:34:03,42.805,6.029,-0.026,-0.001,-0.023,106.0,112.0,102.0,13.4,1505.3,325.2,-0.7,1.8,2470.334,13.33,0.026,267.8
2020-05-13T09:37:03,42.805,6.029,0.022,0.033,-0.021,106.0,111.0,103.0,13.4,1505.3,326.8,-0.7,1.8,2470.343,13.33,0.039,33.7
2020-05-13T09:40:03,42.805,6.029,0.016,0.035,0.006,107.0,111.0,103.0,13.4,1505.3,325.9,-0.7,1.8,2470.364,13.33,0.038,24.6
2020-05-13T09:43:03,42.805,6.029,0.003,0.036,-0.029,105.0,111.0,103.0,13.4,1505.3,326.5,-0.7,1.9,2470.378,13.33,0.036,4.8
2020-05-13T09:46:03,42.805,6.029,-0.004,0.02,-0.009,106.0,112.0,102.0,13.4,1505.3,323.8,-0.7,1.9,2470.327,13.33,0.02,348.7
2020-05-13T09:49:03,42.805,6.029,-0.04,0.048,-0.035,105.0,113.0,102.0,13.4,1505.3,326.8,-0.7,1.8,2470.312,13.33,0.062,320.2
2020-05-13T09:52:03,42.805,6.029,0.011,0.02,-0.014,106.0,112.0,102.0,13.4,1505.3,325.2,-0.7,1.9,2470.341,13.33,0.022,28.8
2020-05-13T09:55:03,42.805,6.029,-0.008,0.027,-0.008,106.0,110.0,102.0,13.3,1505.4,326.9,-0.7,1.8,2470.364,13.34,0.028,343.5
2020-05-13T09:58:03,42.805,6.029,0.017,0.012,-0.005,104.0,112.0,103.0,13.3,1505.3,327.2,-0.7,1.8,2470.299,13.33,0.02,54.8
2020-05-13T10:04:03,42.805,6.029,-0.003,0.03,-0.03,106.0,111.0,103.0,13.4,1505.3,327.9,-0.7,1.8,2470.368,13.32,0.03,354.3